Regional Weather Roundup
Issued by NWS

Home | Current Version | Previous Version | Graphics & Text | Print | Product List | Glossary Off
Versions: 1 2 3 4 5 6 7 8 9 10 11 12 13 14 15 16 17 18 19 20 21 22 23 24 25 26 27 28 29 30 31 32 33 34 35 36 37 38 39 40 41 42 43 44 45 46 47 48 49 50

000
ASUS43 KTOP 190508
RWRKS

WEATHER ROUNDUP FOR KANSAS
NATIONAL WEATHER SERVICE GOODLAND KS
1200 AM CDT SAT APR 19 2014

NOTE:  "FAIR" INDICATES FEW OR NO CLOUDS BELOW 12,000 FEET WITH NO
SIGNIFICANT WEATHER AND/OR OBSTRUCTIONS TO VISIBILITY.

KSZ001>006-013>018-027>032-041>047-190600-
NORTHWEST KANSAS

CITY           SKY/WX    TMP DP  RH WIND       PRES   REMARKS
GOODLAND       MOCLDY    55  43  63 S24       29.93S
HAYS           PTCLDY    55  41  58 S13       30.03F
HILL CITY      PTCLDY    59  43  55 S13       29.99F
RUSSELL        CLEAR     58  41  53 S21       30.02S
$$

KSZ061>065-074>080-084>089-190600-
SOUTHWEST KANSAS

CITY           SKY/WX    TMP DP  RH WIND       PRES   REMARKS
DODGE CITY     PTCLDY    54  45  71 S18       30.06F
ELKHART          N/A     56  42  59 S13         N/A
GARDEN CITY    PTCLDY    53  43  68 SE16G24   30.01F
GREAT BEND     CLEAR     55  41  58 S14       30.06R
LIBERAL        MOCLDY    55  43  62 SE18      30.05S
PRATT          CLEAR     54  43  66 S10       30.10S
$$

KSZ066>073-081>083-090>101-190600-
SOUTHEAST KANSAS

CITY           SKY/WX    TMP DP  RH WIND       PRES   REMARKS
CHANUTE        CLEAR     48  41  76 SE3       30.17S HAZE
COFFEYVILLE    CLEAR     50  40  68 CALM      30.16S
HUTCHINSON     CLEAR     55  40  56 SE12      30.10S
MEDICINE LODGE   N/A     57  44  62 S10       30.10S
NEWTON         CLEAR     54  36  50 SE9       30.15S
PARSONS        CLEAR     47  37  68 CALM      30.17F
WICHITA INTL   PTCLDY    57  39  51 SE12      30.12S
WICHITA JABRA  CLEAR     54  41  61 SE8       30.13R HAZE
WICHITA MCCONL CLEAR     57  41  56 SE10      30.13S
WINFIELD       CLEAR     57  40  52 SE9       30.14S
$$

KSZ007>012-019>026-033>040-048>060-102>105-190600-
NORTHEAST KANSAS

CITY           SKY/WX    TMP DP  RH WIND       PRES   REMARKS
CONCORDIA      CLEAR     56  41  57 SE13      30.07S
EMPORIA        CLEAR     53  40  61 SE8       30.14F
LAWRENCE       PTCLDY    49  41  74 SE5       30.17S
MANHATTAN      CLEAR     57  40  52 S10       30.12S
OLATHE IND     CLEAR     55  41  59 SE6       30.19R
OLATHE EXE     CLEAR     55  41  59 SE6       30.18S
SALINA         CLEAR     56  40  55 SE12      30.09S
TOPEKA BILLARD MOCLDY    54  42  64 SE5       30.16S
TOPEKA FORBES  PTCLDY    53  42  66 SE7       30.16S
$$



USA.gov is the U.S. government's official web portal to all federal, state and local government web resources and services.